Location: Trout Lake
(45.9980°N, 121.5270°W)
Time: 21:03:35
(UTC-08:00)

ATLAS 2AS CENTAUR R/B - Pass Details

Date: 06 December 2023
Orbit: 1004 x 1207 km, 63.7° (Epoch: 18 February)

Event Time Altitude Azimuth Distance (km) Brightness Sun altitude
Rises 18:58:59 0° 320° (NW) 3,908 6.1 -26.5°
Reaches altitude 10° 19:01:43 10° 318° (NW) 2,919 5.4 -27.0°
Maximum altitude 19:08:30 66° 238° (WSW) 1,130 2.9 -28.2°
Enters shadow 19:12:00 29° 165° (SSE) 1,781 3.7 -28.8°
